Flag for Canada Weather past 2 weeks in Markham, Ontario, Canada

Now
57 °F

Clear.


Feels Like: 57 °F
Forecast: 51 / 80 °F
Wind: 5 mph from Southwest

Location: Toronto Buttonville

Current Time: May 24, 2015 at 3:48:08 AM

Latest Report: May 24, 2015 at 3:00 AM


Visibility: 15 mi

Pressure: 30.23 "Hg

Humidity: 31%

Dew point: 27 °F

Location of MarkhamLocation

Historic Weather in Markham — Graph

°F

Markham temperature yesterday

Maximum temperature yesterday: 73 °F (at 3:00 PM)
Minimum temperature yesterday: 37 °F (at 4:00 AM)
Average temperature yesterday: 55 °F

Past Weeks' High & Low Weather Summary

 TemperatureHumidityPressure
High84 °F (May 9, 2:00 PM)100% (May 10, 4:00 AM)30.49 "Hg (May 10, 4:00 AM)
Low37 °F (May 20, 6:00 AM)19% (May 23, 4:00 PM)29.74 "Hg (May 12, 3:00 AM)
Average59 °F61%30.08 "Hg
* Reported May 9 2:00 AM — May 24 2:00 AM, Markham, Weather by CustomWeather, © 2015

Note: Actual official high and low records may vary slightly from our data, if they occured in-between our weather recording intervals... More about our weather records

Advertising

Markham weather history for previous 24 hours

 ConditionsComfort  
Time TempWeatherWind HumidityBarometerVisibility
2:00 AM
Sun, May 24
57 °FClear.5 mph31%30.24 "Hg15 mi
1:00 AM59 °FPassing clouds.7 mph29%30.24 "Hg15 mi
12:00 AM59 °FClear.5 mph31%30.25 "Hg15 mi
11:00 PM
Sat, May 23
63 °FClear.8 mph30%30.25 "Hg15 mi
10:00 PM64 °FClear.8 mph30%30.24 "Hg15 mi
9:00 PM68 °FPassing clouds.5 mph24%30.23 "Hg15 mi
8:00 PM70 °FPassing clouds.12 mph21%30.24 "Hg15 mi
7:00 PM72 °FPassing clouds.8 mph19%30.24 "Hg15 mi
6:00 PM70 °FPassing clouds.10 mph27%30.27 "Hg15 mi
5:00 PM68 °FPassing clouds.14 mph24%30.28 "Hg15 mi
4:00 PM72 °FPassing clouds.10 mph19%30.30 "Hg15 mi
3:00 PM73 °FPassing clouds.12 mph25%30.32 "Hg15 mi
2:00 PM64 °FPassing clouds.8 mph21%30.34 "Hg15 mi
1:00 PM63 °FSunny.13 mph22%30.37 "Hg15 mi
12:00 PM59 °FSunny.10 mph27%30.39 "Hg15 mi
11:00 AM55 °FSunny.9 mph31%30.41 "Hg15 mi
10:00 AM54 °FSunny.7 mph35%30.42 "Hg15 mi
9:00 AM48 °FSunny.7 mph43%30.42 "Hg15 mi
8:00 AM45 °FSunny.6 mph49%30.40 "Hg15 mi
7:00 AM39 °FSunny.2 mph65%30.39 "Hg15 mi
6:00 AM37 °FPassing clouds.3 mph65%30.38 "Hg15 mi
5:00 AM37 °FClear.No wind65%30.36 "Hg15 mi
4:00 AM37 °FClear.3 mph65%30.36 "Hg15 mi
3:00 AM39 °FClear.2 mph61%30.34 "Hg15 mi
Weather by CustomWeather, © 2015

See weather overviewHow to use our weather pages